Weather in Konstantinovka

Russia / Amur Oblast     49°36′53″N   127°59′22″E
temp.,
°C
wind,
m/s
gust,
m/s
humid.,
%
clouds,
%
prec.,
mm/h
press.,
hPa
HPBL,
m
27 july, tue
tue2700:00+20nnw2597100 0.1 1002151
03:00+20wnw2297100 0.1 100325
06:00+20nnw1198100 0.0 100334
09:00+21n0093100 0.0 1004179
12:00+24ese237987 0.0 1004580
15:00+23sse2492100 0.8 1003197
18:00+25ese4581100 0.1 1002469
21:00+22ese3595100 0.1 1002128
28 july, wed
wed2800:00+21s2598100 5.3 1001137
03:00+21ssw399798 6.8 1001259
06:00+20ssw38965 0.0 1002233
09:00+25sw478129 0.0 1002725
12:00+28sw686432 0.3 10011493
15:00+29wsw786099 0.4 10011295
18:00+27wsw587194 0.0 1001607
21:00+22sw3583100 0.0 100198
29 july, thu
thu2900:00+21wsw2285100 0.0 100244
03:00+20ssw2288100 0.0 100214
06:00+20ssw2287100 0.0 100136
09:00+25sw3472100 0.0 1001395
12:00+28wsw3459100 0.0 10001210
15:00+29wsw4456100 0.0 9991501
18:00+27sw577183 0.0 999467
21:00+23wsw3488100 0.2 99968
30 july, fri
fri3000:00+21ssw228972 0.0 99914
03:00+20sw2289100 0.0 99820
06:00+20sw239571 2.2 99874
09:00+24wnw348299 2.3 999513
12:00+25nw557176 0.0 999962
15:00+26nnw666538 0.1 9991093
18:00+22nnw7968100 0.0 1001836
21:00+18nnw397310 0.0 1003256
31 july, sat
sat3100:00+14n5118138 0.0 1004485
03:00+11nnw39930 0.0 1005246
06:00+11nw3987100 0.0 1008319
09:00+18n695678 0.0 1008723
12:00+21nne794935 0.0 10081479
15:00+23nne79445 0.0 10091730
18:00+21ne795431 0.0 10101406
21:00+16nne51262100 0.0 1011411